Location: *
(46.1833°N, 22.7667°E)
Time: 19:44:18
(UTC+00:00)

Cosmos 2219 Rocket - Pass Details

Date: 17 September 2019
Orbit: 829 x 845 km, 71.0° (Epoch: 21 October)

Event Time Altitude Azimuth Distance (km) Brightness Sun altitude
Rises 18:52:30 0° 324° (NW) 3,381 6.5 -23.1°
Reaches altitude 10° 18:55:17 10° 312° (NW) 2,444 5.7 -23.5°
Maximum altitude 18:59:51 26° 257° (WSW) 1,569 4.0 -24.2°
Drops below altitude 10° 19:04:25 10° 202° (SSW) 2,435 4.5 -24.8°
Enters shadow 19:04:46 - 200° (SSW) 2,548 4.6 -24.9°
